Location: Carabito
(9.8355°N, 67.9249°W)
Time: 19:52:58
(UTC+00:00)

H-2A R/B - Pass Details

Date: 23 May 2024
Orbit: 732 x 832 km, 98.2° (Epoch: 22 June)

Event Time Altitude Azimuth Distance (km) Brightness Sun altitude
Rises 09:08:39 0° 357° (N) 3,365 5.6 -14.7°
Reaches altitude 10° 09:11:10 10° 349° (N) 2,429 4.8 -14.2°
Maximum altitude 09:16:03 36° 284° (WNW) 1,277 2.8 -13.1°
Enters shadow 09:20:15 13° 222° (SW) 2,173 3.8 -12.1°
